Weather History for KDUJ - February, 2015

Change the Weather History Date:

Friday, February 6, 2015

  Actual Average Record
Temperature  
Mean Temperature 10 °F 25 °F  
Max Temperature 21 °F 32 °F 57 °F (2008)
Min Temperature -2 °F 17 °F -9 °F (2007)
Degree Days  
Heating Degree Days 55 40  
Month to date heating degree days 283 243  
Since 1 July heating degree days 4201 4187  
Cooling Degree Days 0 0  
Month to date cooling degree days 0 0  
Year to date cooling degree days 0 0  
Moisture  
Dew Point 3 °F    
Average Humidity 68    
Maximum Humidity 79    
Minimum Humidity 56    
Precipitation  
Precipitation 0.00 in 0.08 in 0.93 in (2008)
Month to date precipitation 0.79 0.48  
Sea Level Pressure  
Sea Level Pressure 30.19 in    
Wind  
Wind Speed 12 mph (WSW)    
Max Wind Speed 22 mph    
Max Gust Speed 31 mph    
Visibility 10 miles    
Events      
T = Trace of Precipitation, MM = Missing Value Source: NWS Daily Summary

Daily Weather History Graph

Daily Weather History Graph

Search for Another Location

Airport or City:

Trip Planner

Search our weather history database for the weather conditions in past years. The results will help you decide how hot, cold, wet, or windy it might be!

Date:

Astronomy

Feb. 06, 2015 Rise Set
Actual Time 7:21 AM EST 5:38 PM EST
Civil Twilight 6:52 AM EST 6:07 PM EST
Nautical Twilight 6:20 AM EST 6:39 PM EST
Astronomical Twilight 5:47 AM EST 7:12 PM EST
Moon 8:27 PM EST (2/6) 8:25 AM EST (2/6)
Length of Visible Light 11h 14m
Length of Day
10h 16m
Waning Gibbous, 93% of the Moon is Illuminated
Feb 6
Waning Gibbous
Feb 11
Last Quarter
Feb 18
New
Feb 25
First Quarter
Mar 5
Full

Hourly Weather History & Observations

Time (EST) Temp. Windchill Dew Point Humidity Pressure Visibility Wind Dir Wind Speed Gust Speed Precip Events Conditions
12:53 AM -0.0 °F -13.0 °F -7.1 °F 72% 30.29 in 10.0 mi WSW 6.9 mph - N/A   Clear
1:53 AM -0.0 °F -15.3 °F -7.1 °F 72% 30.29 in 10.0 mi SW 9.2 mph - N/A   Clear
2:53 AM -0.9 °F -14.1 °F -7.1 °F 75% 30.28 in 10.0 mi SW 6.9 mph - N/A   Clear
3:53 AM -0.9 °F -17.4 °F -7.1 °F 75% 30.27 in 10.0 mi WSW 10.4 mph - N/A   Clear
4:53 AM 1.0 °F -15.8 °F -6.0 °F 72% 30.25 in 10.0 mi WSW 11.5 mph - N/A   Clear
5:53 AM 1.9 °F -13.8 °F -4.0 °F 76% 30.24 in 10.0 mi SW 10.4 mph - N/A   Overcast
6:53 AM 5.0 °F -11.6 °F -2.9 °F 70% 30.22 in 10.0 mi SW 12.7 mph - N/A   Overcast
7:53 AM 7.0 °F -12.1 °F -0.9 °F 70% 30.20 in 10.0 mi SW 18.4 mph - N/A   Overcast
8:53 AM 8.1 °F -9.0 °F -0.0 °F 70% 30.20 in 10.0 mi SW 15.0 mph - N/A   Overcast
9:53 AM 10.9 °F -7.0 °F 1.9 °F 67% 30.19 in 10.0 mi WSW 18.4 mph 25.3 mph N/A   Overcast
10:53 AM 14.0 °F -3.0 °F 3.9 °F 64% 30.19 in 10.0 mi WSW 18.4 mph - N/A   Overcast
11:53 AM 17.1 °F 0.6 °F 5.0 °F 59% 30.17 in 10.0 mi West 19.6 mph 26.5 mph N/A   Overcast
12:53 PM 17.1 °F 2.0 °F 6.1 °F 62% 30.16 in 10.0 mi West 16.1 mph 25.3 mph N/A   Overcast
1:53 PM 18.0 °F 2.2 °F 8.1 °F 65% 30.16 in 9.0 mi West 18.4 mph 25.3 mph N/A   Overcast
2:53 PM 19.9 °F 6.7 °F 9.0 °F 62% 30.16 in 10.0 mi West 13.8 mph - N/A   Overcast
3:53 PM 19.9 °F 6.7 °F 10.0 °F 65% 30.16 in 10.0 mi West 13.8 mph - N/A   Overcast
4:38 PM 19.9 °F 6.2 °F 10.0 °F 65% 30.05 in 10.0 mi West 15.0 mph - N/A   Scattered Clouds
4:53 PM 21.0 °F 8.1 °F 10.0 °F 63% 30.16 in 10.0 mi WSW 13.8 mph - N/A   Partly Cloudy
5:53 PM 19.0 °F 7.5 °F 9.0 °F 65% 30.18 in 10.0 mi West 10.4 mph - N/A   Clear
6:53 PM 16.0 °F 6.3 °F 7.0 °F 68% 30.17 in 10.0 mi SW 6.9 mph - N/A   Clear
7:53 PM 17.1 °F 5.0 °F 8.1 °F 68% 30.18 in 10.0 mi WSW 10.4 mph - N/A   Clear
8:53 PM 16.0 °F 6.3 °F 8.1 °F 71% 30.18 in 10.0 mi WSW 6.9 mph - N/A   Clear
9:53 PM 16.0 °F 4.4 °F 7.0 °F 68% 30.17 in 10.0 mi SW 9.2 mph - N/A   Scattered Clouds
10:53 PM 18.0 °F 6.1 °F 9.0 °F 68% 30.16 in 10.0 mi SW 10.4 mph - N/A   Overcast
11:53 PM 19.9 °F 9.3 °F 10.0 °F 65% 30.16 in 10.0 mi SW 9.2 mph - N/A   Overcast